Stevensville, MD

9:08 PM EST on November 21, 2017 (GMT -0500)
Stevensville

Weather History for KW29 - December, 2013

Change the Weather History Date:

Friday, December 6, 2013

  Actual Average (KESN) Record (KESN)
Temperature  
Mean Temperature 50 °F -  
Max Temperature 62 °F 54 °F 67 °F (1956)
Min Temperature 37 °F 33 °F 20 °F (1949)
Degree Days  
Heating Degree Days 16    
Moisture  
Dew Point 49 °F    
Average Humidity 99    
Maximum Humidity 100    
Minimum Humidity 93    
Precipitation  
Precipitation 0.00 in - - ()
Sea Level Pressure  
Sea Level Pressure 30.02 in    
Wind  
Wind Speed 9 mph (North)    
Max Wind Speed 16 mph    
Max Gust Speed 24 mph    
Visibility 7 miles    
Events Rain    
Averages and records for this station are not official NWS values.
T = Trace of Precipitation, MM = Missing Value Source: NWS Daily Summary

Daily Weather History Graph

Daily Weather History Graph

Search for Another Location

Airport or City:

Trip Planner

Search our weather history database for the weather conditions in past years. The results will help you decide how hot, cold, wet, or windy it might be!

Date:

Astronomy

Dec. 06, 2013 Rise Set
Actual Time 7:10 AM EST 4:42 PM EST
Civil Twilight 6:40 AM EST 5:12 PM EST
Nautical Twilight 6:07 AM EST 5:45 PM EST
Astronomical Twilight 5:34 AM EST 6:18 PM EST
Moon 10:15 AM EST (12/6) 9:10 PM EST (12/6)
Length of Visible Light 10h 32m
Length of Day
9h 32m
Waxing Crescent, 19% of the Moon is Illuminated
Dec 6
Waxing Crescent
Dec 9
First Quarter
Dec 17
Full
Dec 25
Last Quarter
Jan 1
New

Hourly Weather History & Observations

Time (EST) Temp. Windchill Dew Point Humidity Pressure Visibility Wind Dir Wind Speed Gust Speed Precip Events Conditions
12:10 AM 62.6 °F - 60.8 °F 94% 29.96 in 10.0 mi South 9.2 mph - N/A   Overcast
12:30 AM 60.8 °F - 60.8 °F 100% 29.95 in 10.0 mi South 9.2 mph - N/A   Overcast
12:50 AM 60.8 °F - 60.8 °F 100% 29.94 in 10.0 mi SSE 9.2 mph - N/A   Overcast
1:10 AM 60.8 °F - 59.0 °F 94% 29.94 in 10.0 mi SSE 8.1 mph - N/A   Light Drizzle
1:30 AM 60.8 °F - 60.8 °F 100% 29.94 in 10.0 mi South 9.2 mph - N/A   Overcast
1:50 AM 60.8 °F - 59.0 °F 94% 29.95 in 10.0 mi South 9.2 mph - N/A   Overcast
2:10 AM 59.0 °F - 59.0 °F 100% 29.94 in 5.0 mi SSE 8.1 mph - N/A Rain Light Rain
2:30 AM 59.0 °F - 59.0 °F 100% 29.93 in 7.0 mi SSE 6.9 mph - N/A   Mostly Cloudy
2:50 AM 59.0 °F - 59.0 °F 100% 29.91 in 5.0 mi SSE 10.4 mph - N/A Rain Light Rain
3:10 AM 59.0 °F - 59.0 °F 100% 29.91 in 5.0 mi South 12.7 mph - N/A Rain Light Rain
3:30 AM 59.0 °F - 59.0 °F 100% 29.91 in 7.0 mi SSE 8.1 mph - N/A   Mostly Cloudy
3:50 AM 59.0 °F - 59.0 °F 100% 29.91 in 7.0 mi South 11.5 mph 18.4 mph N/A Rain Light Rain
4:10 AM 59.0 °F - 59.0 °F 100% 29.91 in 7.0 mi South 11.5 mph - N/A Rain Light Rain
4:30 AM 59.0 °F - 59.0 °F 100% 29.92 in 7.0 mi South 9.2 mph - N/A   Light Drizzle
4:50 AM 59.0 °F - 59.0 °F 100% 29.91 in 7.0 mi South 10.4 mph - N/A   Overcast
5:10 AM 59.0 °F - 59.0 °F 100% 29.92 in 7.0 mi South 8.1 mph - N/A   Overcast
5:30 AM 59.0 °F - 59.0 °F 100% 29.91 in 7.0 mi South 6.9 mph - N/A   Overcast
5:50 AM 60.8 °F - 60.8 °F 100% 29.92 in 7.0 mi SSE 6.9 mph - N/A   Overcast
6:11 AM 59.0 °F - 59.0 °F 100% 29.91 in 7.0 mi SSE 6.9 mph - N/A   Overcast
6:31 AM 59.0 °F - 59.0 °F 100% 29.92 in 7.0 mi SSE 5.8 mph - N/A   Overcast
6:51 AM 59.0 °F - 59.0 °F 100% 29.92 in 7.0 mi SSE 8.1 mph - N/A   Overcast
7:11 AM 59.0 °F - 59.0 °F 100% 29.93 in 7.0 mi SSE 6.9 mph - N/A   Overcast
7:31 AM 60.8 °F - 60.8 °F 100% 29.93 in 7.0 mi SSE 6.9 mph - N/A   Overcast
7:51 AM 60.8 °F - 60.8 °F 100% 29.94 in 5.0 mi South 6.9 mph - N/A   Overcast
8:11 AM 60.8 °F - 60.8 °F 100% 29.95 in 1.5 mi South 4.6 mph - N/A   Overcast
8:31 AM 60.8 °F - 60.8 °F 100% 29.96 in 2.5 mi NW 5.8 mph - N/A   Overcast
8:51 AM 51.8 °F - 50.0 °F 94% 30.01 in 4.0 mi NNW 12.7 mph 20.7 mph N/A   Light Drizzle
9:11 AM 50.0 °F - 50.0 °F 100% 30.02 in 3.0 mi NNW 11.5 mph 17.3 mph N/A   Light Drizzle
9:31 AM 50.0 °F - 50.0 °F 100% 30.05 in 3.0 mi NW 11.5 mph 18.4 mph N/A   Light Drizzle
9:51 AM 48.2 °F - 48.2 °F 100% 30.07 in 2.5 mi NW 12.7 mph - N/A Rain Rain
10:11 AM 48.2 °F - 48.2 °F 100% 30.07 in 3.0 mi NW 9.2 mph 18.4 mph N/A   Overcast
10:31 AM 46.4 °F 41.5 °F 46.4 °F 100% 30.07 in 5.0 mi NNW 10.4 mph - N/A   Overcast
10:51 AM 46.4 °F 41.9 °F 46.4 °F 100% 30.09 in 10.0 mi NW 9.2 mph - N/A   Overcast
11:11 AM 46.4 °F 41.5 °F 46.4 °F 100% 30.05 in 10.0 mi NNW 10.4 mph - N/A   Overcast
11:31 AM 46.4 °F 41.9 °F 46.4 °F 100% 30.05 in 10.0 mi NNW 9.2 mph - N/A   Overcast
11:51 AM 46.4 °F 42.4 °F 46.4 °F 100% 30.06 in 10.0 mi NNW 8.1 mph - N/A Rain Light Rain
12:11 PM 46.4 °F 41.9 °F 46.4 °F 100% 30.04 in 7.0 mi North 9.2 mph - N/A Rain Rain
12:31 PM 46.4 °F 42.9 °F 46.4 °F 100% 30.05 in 7.0 mi NNW 6.9 mph - N/A Rain Rain
12:51 PM 46.4 °F 42.4 °F 46.4 °F 100% 30.03 in 7.0 mi North 8.1 mph - N/A Rain Light Rain
1:11 PM 46.4 °F 43.5 °F 46.4 °F 100% 30.04 in 3.0 mi North 5.8 mph - N/A Rain Heavy Rain
1:31 PM 44.6 °F 42.2 °F 44.6 °F 100% 30.03 in 7.0 mi North 4.6 mph - N/A Rain Light Rain
1:51 PM 44.6 °F 40.2 °F 44.6 °F 100% 30.02 in 10.0 mi NNW 8.1 mph - N/A Rain Light Rain
2:11 PM 44.6 °F 40.2 °F 44.6 °F 100% 30.03 in 7.0 mi NNW 8.1 mph - N/A Rain Light Rain
2:31 PM 44.6 °F 40.7 °F 44.6 °F 100% 30.05 in 10.0 mi NNW 6.9 mph - N/A   Light Drizzle
2:52 PM 44.6 °F 39.2 °F 44.6 °F 100% 30.05 in 7.0 mi North 10.4 mph - N/A Rain Rain
3:12 PM 44.6 °F 40.2 °F 44.6 °F 100% 30.04 in 5.0 mi North 8.1 mph - N/A   Drizzle
3:32 PM 44.6 °F 42.2 °F 44.6 °F 100% 30.02 in 2.5 mi NNE 4.6 mph - N/A   Light Drizzle
3:52 PM 44.6 °F 40.2 °F 44.6 °F 100% 30.04 in 4.0 mi North 8.1 mph - N/A   Overcast
4:12 PM 44.6 °F 38.8 °F 44.6 °F 100% 30.04 in 5.0 mi North 11.5 mph 16.1 mph N/A Rain Rain
4:32 PM 44.6 °F 38.8 °F 44.6 °F 100% 30.05 in 5.0 mi North 11.5 mph 17.3 mph N/A   Light Drizzle
4:52 PM 42.8 °F 36.6 °F 42.8 °F 100% 30.05 in 7.0 mi North 11.5 mph - N/A   Light Drizzle
5:12 PM 42.8 °F 37.0 °F 42.8 °F 100% 30.05 in 4.0 mi North 10.4 mph - N/A Rain Light Rain
5:32 PM 42.8 °F 37.0 °F 42.8 °F 100% 30.04 in 5.0 mi North 10.4 mph - N/A   Light Drizzle
5:52 PM 42.8 °F 36.6 °F 42.8 °F 100% 30.06 in 5.0 mi North 11.5 mph 17.3 mph N/A   Overcast
6:12 PM 42.8 °F 36.6 °F 42.8 °F 100% 30.07 in 5.0 mi North 11.5 mph 16.1 mph N/A Rain Rain
6:32 PM 42.8 °F 37.0 °F 42.8 °F 100% 30.08 in 4.0 mi North 10.4 mph - N/A Rain Light Rain
6:52 PM 42.8 °F 38.6 °F 42.8 °F 100% 30.07 in 5.0 mi North 6.9 mph - N/A   Drizzle
7:12 PM 42.8 °F 37.5 °F 42.8 °F 100% 30.09 in 7.0 mi North 9.2 mph 16.1 mph N/A   Drizzle
7:32 PM 42.8 °F 37.0 °F 42.8 °F 100% 30.07 in 7.0 mi NNE 10.4 mph - N/A   Overcast
7:52 PM 42.8 °F 37.0 °F 42.8 °F 100% 30.10 in 7.0 mi North 10.4 mph - N/A   Drizzle
8:12 PM 42.8 °F 35.8 °F 42.8 °F 100% 30.11 in 7.0 mi North 13.8 mph 20.7 mph N/A   Light Drizzle
8:32 PM 41.0 °F 34.7 °F 41.0 °F 100% 30.08 in 5.0 mi NNE 10.4 mph 24.2 mph N/A Rain Light Rain
8:52 PM 41.0 °F 33.5 °F 41.0 °F 100% 30.09 in 5.0 mi North 13.8 mph 18.4 mph N/A   Light Drizzle
9:12 PM 41.0 °F 32.8 °F 41.0 °F 100% 30.12 in 5.0 mi North 16.1 mph - N/A   Overcast
9:32 PM 39.2 °F 31.6 °F 37.4 °F 93% 30.12 in 5.0 mi NNE 12.7 mph 19.6 mph N/A Rain Rain
9:52 PM 37.4 °F 31.4 °F 37.4 °F 100% 30.10 in 10.0 mi NNE 8.1 mph 18.4 mph N/A   Light Drizzle
10:12 PM 39.2 °F 32.0 °F 37.4 °F 93% 30.13 in 10.0 mi North 11.5 mph 17.3 mph N/A Rain Light Rain
10:32 PM 39.2 °F 30.8 °F 37.4 °F 93% 30.16 in 7.0 mi North 15.0 mph 19.6 mph N/A Rain Rain
10:52 PM 37.4 °F 28.5 °F 37.4 °F 100% 30.16 in 7.0 mi North 15.0 mph 20.7 mph N/A Rain Light Rain
11:12 PM 37.4 °F 31.4 °F 37.4 °F 100% 30.13 in 10.0 mi NNE 8.1 mph - N/A   Drizzle
11:33 PM 37.4 °F 29.8 °F 37.4 °F 100% 30.15 in 7.0 mi North 11.5 mph 17.3 mph N/A Rain Rain
11:53 PM 37.4 °F 29.8 °F 37.4 °F 100% 30.13 in 10.0 mi North 11.5 mph 20.7 mph N/A   Light Drizzle